Regional Weather Roundup
Issued by NWS

Home | Current Version | Previous Version | Text Only | Print | Product List | Glossary On
Versions: 1 2 3 4 5 6 7 8 9 10 11 12 13 14 15 16 17 18 19 20 21 22 23 24 25 26 27 28 29 30 31 32 33 34 35 36 37 38 39 40 41 42 43 44 45 46 47 48 49 50
000
ASUS45 KPSR 301510
RWRAZ

ARIZONA HOURLY REGIONAL WEATHER ROUNDUP
NATIONAL WEATHER SERVICE PHOENIX AZ
800 AM MST TUE JUN 30 2015

NOTE: FAIR INDICATES FEW OR NO CLOUDS BELOW 12,000 FEET WITH NO
SIGNIFICANT WEATHER AND/OR OBSTRUCTIONS TO VISIBILITY.

AZZ001>003-036-301600-
NORTHWEST ARIZONA

CITY           SKY/WX    TMP DP  RH WIND       PRES   REMARKS
BULLHEAD CITY  MOSUNNY   99  55  23 SW6       29.83R
KINGMAN        MOSUNNY   86  52  30 CALM      30.05R
$$

AZZ004>008-015-016-018-301600-
NORTH CENTRAL ARIZONA

CITY           SKY/WX    TMP DP  RH WIND       PRES   REMARKS
GRAND CANYON   SUNNY     76  50  40 CALM      30.30S
WILLIAMS       MOSUNNY   73  52  46 E3        30.38S
PRESCOTT       MOSUNNY   76  59  55 S6        30.18R
FLAGSTAFF        N/A     72  52  49 CALM      30.33S
PAYSON         MOSUNNY   77  55  47 VRB5      30.24R
PAGE           SUNNY     86  49  27 E5        30.08S
$$

AZZ009>014-017-301600-
NORTHEAST ARIZONA

CITY           SKY/WX    TMP DP  RH WIND       PRES   REMARKS
WINSLOW        MOSUNNY   79  52  38 W7        30.17F
SAINT JOHNS    SUNNY     74  54  49 CALM      30.23F
WINDOW ROCK    SUNNY     72  52  49 CALM      30.32S
SHOW LOW       SUNNY     73  46  38 SW9       30.30F
$$

AZZ023-301600-
GREATER PHOENIX AREA

CITY           SKY/WX    TMP DP  RH WIND       PRES   REMARKS
PHOENIX        MOSUNNY   92  63  38 SE13      29.90R
BUCKEYE        MOSUNNY   91  63  38 S8        29.93R
GLENDALE       MOSUNNY   93  61  33 S13       29.92R
DEER VALLEY    SUNNY     89  65  44 SE7       29.93R
SCOTTSDALE     SUNNY     88  66  48 SE9       29.96R
MESA-FALCON    MOSUNNY   90  63  40 S9        29.94R
MESA-GATEWAY   MOSUNNY   91  63  38 S12       29.96R
CHANDLER       PTSUNNY   90  63  40 SE17      29.92R
$$

AZZ027-028-301600-
SOUTHWEST MARICOPA COUNTY AND PINAL COUNTY

CITY           SKY/WX    TMP DP  RH WIND       PRES   REMARKS
CASA GRANDE    MOSUNNY   90  63  40 SW13      29.94R
GILA BEND        N/A     92  62  37 SW16      29.91R
$$

AZZ503-504-507>509-301600-
SOUTHEAST ARIZONA

CITY           SKY/WX    TMP DP  RH WIND       PRES   REMARKS
TUCSON         PTSUNNY   77  64  64 SE9       30.04R
DAVIS-MONTHAN  CLOUDY    78  63  60 SE8       30.03R
RYAN FIELD     SUNNY     81  70  69 CALM      30.02R
NOGALES        CLOUDY    76  61  59 CALM      30.12R
SIERRA VISTA   PTSUNNY   73  60  61 VRB2      30.18S
DOUGLAS        PTSUNNY   80  57  45 N3        30.12R
SAFFORD        MOSUNNY   85  56  37 SE9       30.05F
$$

AZZ020-021-025-026-031-301600-
SOUTHWEST ARIZONA

CITY           SKY/WX    TMP DP  RH WIND       PRES   REMARKS
YUMA           MOSUNNY   90  71  53 S23       29.86R BLWGDUST
$$

CAZ031-033-041-043-047-048-061-301600-
SOUTHERN CALIFORNIA

CITY           SKY/WX    TMP DP  RH WIND       PRES   REMARKS
DOWNTOWN L.A.  SUNNY     73  61  65 CALM      29.89R
L.A. AIRPORT   MOSUNNY   69  64  84 CALM      29.90R
SAN DIEGO      PTSUNNY   70  62  76 CALM      29.91S
BURBANK        SUNNY     75  58  55 SE5       29.90R
ONTARIO        MOSUNNY   76  59  55 S3        29.91R
RIVERSIDE      LGT RAIN  75  60  59 CALM      29.90S
PALM SPRINGS   MOSUNNY   93  53  25 CALM      29.85S
EL CENTRO NAS  MOSUNNY   89  72  56 SE20      29.85R
IMPERIAL       SUNNY     87  71  58 SE23      29.83R
BLYTHE         SUNNY     90  64  42 S16       29.85R
NEEDLES        SUNNY    100  56  23 E6        29.84R
$$

NVZ020-UTZ003-301600-
SOUTHERN NEVADA-UTAH

CITY           SKY/WX    TMP DP  RH WIND       PRES   REMARKS
LAS VEGAS      CLOUDY    97  53  22 S6        29.88R
SALT LAKE CITY PTSUNNY   85  54  34 SE9       30.07S
$$

NMZ009-TXZ055-301600-
NEW MEXICO-WEST TEXAS

CITY           SKY/WX    TMP DP  RH WIND       PRES   REMARKS
ALBUQUERQUE    PTSUNNY   76  51  41 N7        30.27S
EL PASO        MOSUNNY   80  56  43 NE6       30.14S
$$


........................KEY........................
SKY/WX - SKY CONDITION/WEATHER
TMP    - TEMPERATURE IN FAHRENHEIT
DP     - DEW POINT IN FAHRENHEIT
RH     - RELATIVE HUMIDITY IN PERCENT
WIND   - DIRECTION AND SPEED IN MILES PER HOUR (MPH)
VRB    - VARIABLE WIND DIRECTION
PRES   - MEAN SEA LEVEL PRESSURE IN INCHES OF MERCURY
         F - FALLING PRESSURE   R - RISING PRESSURE
         S - STEADY PRESSURE
VSB    - VISIBILITY IN MILES
HX     - HEAT INDEX IN FAHRENHEIT
WCI    - WIND CHILL INDEX IN FAHRENHEIT
TC     - TEMPERATURE IN CELSIUS WHICH IS ALSO KNOWN AS
         TEMPERATURE IN CENTIGRADE
AFB    - AIR FORCE BASE
         LUKE AFB IS LUKE AIR FORCE BASE
         DAVIS-MONTHAN IS DAVIS-MONTHAN AIR FORCE BASE
NAS    - NAVAL AIR STATION
         EL CENTRO NAS IS EL CENTRO NAVAL AIR STATION
N/A    - NOT AVAILABLE




USA.gov is the U.S. government's official web portal to all federal, state and local government web resources and services.